Year,Month,Day,Hour,Minute,Value (Times are PST for temperature in C)
2012,10,26,15,17,6.90
2012,10,26,15,18,6.90
2012,10,26,15,19,6.90
2012,10,26,15,20,6.90
2012,10,26,15,21,6.90
2012,10,26,15,22,6.90
2012,10,26,15,23,6.90
2012,10,26,15,24,6.90
2012,10,26,15,25,6.90
2012,10,26,15,26,6.90
2012,10,26,15,27,6.90
2012,10,26,15,28,7.00
2012,10,26,15,29,7.00
2012,10,26,15,30,7.00
2012,10,26,15,31,7.00
2012,10,26,15,32,7.00
2012,10,26,15,33,6.90
2012,10,26,15,34,6.90
2012,10,26,15,35,6.90
2012,10,26,15,36,6.90
2012,10,26,15,37,6.90
2012,10,26,15,38,6.90
2012,10,26,15,39,6.90
2012,10,26,15,40,6.90
2012,10,26,15,41,6.90
2012,10,26,15,42,6.90
2012,10,26,15,43,6.90
2012,10,26,15,44,6.90
2012,10,26,15,45,6.90
2012,10,26,15,46,6.90
2012,10,26,15,47,6.90
2012,10,26,15,48,6.90
2012,10,26,15,49,6.90
2012,10,26,15,50,6.80
2012,10,26,15,51,6.80
2012,10,26,15,52,6.90
2012,10,26,15,53,6.90
2012,10,26,15,54,6.90
2012,10,26,15,55,6.90
2012,10,26,15,56,6.90
2012,10,26,15,57,6.90
2012,10,26,15,58,6.80
2012,10,26,15,59,6.80
2012,10,26,16,00,6.90
2012,10,26,16,01,6.90
2012,10,26,16,02,6.90
2012,10,26,16,03,6.90
2012,10,26,16,04,6.80
2012,10,26,16,05,6.80
2012,10,26,16,06,6.80
2012,10,26,16,07,6.80
2012,10,26,16,08,6.80
2012,10,26,16,09,6.80
2012,10,26,16,10,6.80
2012,10,26,16,11,6.80
2012,10,26,16,12,6.80
2012,10,26,16,13,6.80
2012,10,26,16,14,6.80
2012,10,26,16,15,6.80
2012,10,26,16,16,6.80
2012,10,26,16,17,6.80
2012,10,26,16,18,6.80
2012,10,26,16,19,6.80
2012,10,26,16,20,6.80
2012,10,26,16,21,6.80
2012,10,26,16,22,6.80
2012,10,26,16,23,6.80
2012,10,26,16,24,6.80
2012,10,26,16,25,6.80
2012,10,26,16,26,6.80
2012,10,26,16,27,6.80
2012,10,26,16,28,6.80
2012,10,26,16,29,6.80
2012,10,26,16,30,6.80
2012,10,26,16,31,6.80
2012,10,26,16,32,6.80
2012,10,26,16,33,6.80
2012,10,26,16,34,6.80
2012,10,26,16,35,6.80
2012,10,26,16,36,6.80
2012,10,26,16,37,6.80
2012,10,26,16,38,6.80
2012,10,26,16,39,6.80
2012,10,26,16,40,6.80
2012,10,26,16,41,6.80
2012,10,26,16,42,6.80
2012,10,26,16,43,6.80
2012,10,26,16,44,6.80
2012,10,26,16,45,6.80
2012,10,26,16,46,6.80
2012,10,26,16,47,6.80
2012,10,26,16,48,6.80
2012,10,26,16,49,6.80
2012,10,26,16,50,6.80
2012,10,26,16,51,6.80
2012,10,26,16,52,6.80
2012,10,26,16,53,6.80
2012,10,26,16,54,6.80
2012,10,26,16,55,6.80
2012,10,26,16,56,6.80
2012,10,26,16,57,6.80
2012,10,26,16,58,6.80
2012,10,26,16,59,6.80
2012,10,26,17,00,6.80
2012,10,26,17,01,6.80
2012,10,26,17,02,6.80
2012,10,26,17,03,6.80
2012,10,26,17,04,6.80
2012,10,26,17,05,6.80
2012,10,26,17,06,6.80
2012,10,26,17,07,6.70
2012,10,26,17,08,6.70
2012,10,26,17,09,6.70
2012,10,26,17,10,6.70
2012,10,26,17,11,6.70
2012,10,26,17,12,6.70
2012,10,26,17,13,6.70
2012,10,26,17,14,6.70
2012,10,26,17,15,6.70
2012,10,26,17,16,6.70
2012,10,26,17,17,6.70
2012,10,26,17,18,6.70
2012,10,26,17,19,6.70
2012,10,26,17,20,6.70
2012,10,26,17,21,6.70
2012,10,26,17,22,6.70
2012,10,26,17,23,6.70
2012,10,26,17,24,6.60
2012,10,26,17,25,6.60
2012,10,26,17,26,6.60
2012,10,26,17,27,6.60
2012,10,26,17,28,6.60
2012,10,26,17,29,6.60
2012,10,26,17,30,6.60
2012,10,26,17,31,6.60
2012,10,26,17,32,6.60
2012,10,26,17,33,6.60
2012,10,26,17,34,6.60
2012,10,26,17,35,6.60
2012,10,26,17,36,6.60
2012,10,26,17,37,6.60
2012,10,26,17,38,6.60
2012,10,26,17,39,6.60
2012,10,26,17,40,6.60
2012,10,26,17,41,6.50
2012,10,26,17,42,6.50
2012,10,26,17,43,6.50
2012,10,26,17,44,6.50
2012,10,26,17,45,6.50
2012,10,26,17,46,6.50
2012,10,26,17,47,6.50
2012,10,26,17,48,6.40
2012,10,26,17,49,6.40
2012,10,26,17,50,6.40
2012,10,26,17,51,6.40
2012,10,26,17,52,6.40
2012,10,26,17,53,6.40
2012,10,26,17,54,6.40
2012,10,26,17,55,6.40
2012,10,26,17,56,6.40
2012,10,26,17,57,6.40
2012,10,26,17,58,6.40
2012,10,26,17,59,6.40
2012,10,26,18,00,6.40
2012,10,26,18,01,6.40
2012,10,26,18,02,6.40
2012,10,26,18,03,6.40
2012,10,26,18,04,6.40
2012,10,26,18,05,6.40
2012,10,26,18,06,6.30
2012,10,26,18,07,6.30
2012,10,26,18,08,6.30
2012,10,26,18,09,6.30
2012,10,26,18,10,6.30
2012,10,26,18,11,6.30
2012,10,26,18,12,6.30
2012,10,26,18,13,6.30
2012,10,26,18,14,6.30
2012,10,26,18,15,6.30
2012,10,26,18,16,6.30
2012,10,26,18,17,6.30
2012,10,26,18,18,6.30
2012,10,26,18,19,6.30
2012,10,26,18,20,6.30
2012,10,26,18,21,6.30
2012,10,26,18,22,6.30
2012,10,26,18,23,6.30
2012,10,26,18,24,6.30
2012,10,26,18,25,6.30
2012,10,26,18,26,6.30
2012,10,26,18,27,6.30
2012,10,26,18,28,6.30
2012,10,26,18,29,6.30
2012,10,26,18,30,6.30
2012,10,26,18,31,6.30
2012,10,26,18,32,6.30
2012,10,26,18,33,6.30
2012,10,26,18,34,6.30
2012,10,26,18,35,6.30
2012,10,26,18,36,6.30
2012,10,26,18,37,6.30
2012,10,26,18,38,6.30
2012,10,26,18,39,6.40
2012,10,26,18,40,6.30
2012,10,26,18,41,6.30
2012,10,26,18,42,6.30
2012,10,26,18,43,6.30
2012,10,26,18,44,6.30
2012,10,26,18,45,6.30
2012,10,26,18,46,6.30
2012,10,26,18,47,6.30
2012,10,26,18,48,6.30
2012,10,26,18,49,6.30
2012,10,26,18,50,6.30
2012,10,26,18,51,6.30
2012,10,26,18,52,6.30
2012,10,26,18,53,6.30
2012,10,26,18,54,6.30
2012,10,26,18,55,6.30
2012,10,26,18,56,6.30
2012,10,26,18,57,6.30
2012,10,26,18,58,6.30
2012,10,26,18,59,6.30
2012,10,26,19,00,6.30
2012,10,26,19,01,6.30
2012,10,26,19,02,6.30
2012,10,26,19,03,6.30
2012,10,26,19,04,6.30
2012,10,26,19,05,6.30
2012,10,26,19,06,6.30
2012,10,26,19,07,6.30
2012,10,26,19,08,6.30
2012,10,26,19,09,6.30
2012,10,26,19,10,6.30
2012,10,26,19,11,6.30
2012,10,26,19,12,6.30
2012,10,26,19,13,6.30
2012,10,26,19,14,6.30
2012,10,26,19,15,6.30
2012,10,26,19,16,6.30
2012,10,26,19,17,6.30
2012,10,26,19,18,6.30
2012,10,26,19,19,6.30
2012,10,26,19,20,6.30
2012,10,26,19,21,6.30
2012,10,26,19,22,6.30
2012,10,26,19,23,6.30
2012,10,26,19,24,6.30
2012,10,26,19,25,6.30
2012,10,26,19,26,6.30
2012,10,26,19,27,6.30
2012,10,26,19,28,6.30
2012,10,26,19,29,6.30
2012,10,26,19,30,6.30
2012,10,26,19,31,6.30
2012,10,26,19,32,6.30
2012,10,26,19,33,6.30
2012,10,26,19,34,6.30
2012,10,26,19,35,6.30
2012,10,26,19,36,6.30
2012,10,26,19,37,6.30
2012,10,26,19,38,6.30
2012,10,26,19,39,6.30
2012,10,26,19,40,6.30
2012,10,26,19,41,6.30
2012,10,26,19,42,6.30
2012,10,26,19,43,6.30
2012,10,26,19,44,6.30
2012,10,26,19,45,6.30
2012,10,26,19,46,6.30
2012,10,26,19,47,6.30
2012,10,26,19,48,6.30
2012,10,26,19,49,6.30
2012,10,26,19,50,6.30
2012,10,26,19,51,6.30
2012,10,26,19,52,6.30
2012,10,26,19,53,6.30
2012,10,26,19,54,6.30
2012,10,26,19,55,6.30
2012,10,26,19,56,6.30
2012,10,26,19,57,6.30
2012,10,26,19,58,6.30
2012,10,26,19,59,6.30
2012,10,26,20,00,6.30
2012,10,26,20,01,6.30
2012,10,26,20,02,6.30
2012,10,26,20,03,6.30
2012,10,26,20,04,6.30
2012,10,26,20,05,6.30
2012,10,26,20,06,6.30
2012,10,26,20,07,6.30
2012,10,26,20,08,6.30
2012,10,26,20,09,6.30
2012,10,26,20,10,6.30
2012,10,26,20,11,6.30
2012,10,26,20,12,6.30
2012,10,26,20,13,6.30
2012,10,26,20,14,6.30
2012,10,26,20,15,6.30
2012,10,26,20,16,6.30
2012,10,26,20,17,6.30
2012,10,26,20,18,6.30
2012,10,26,20,19,6.30
2012,10,26,20,20,6.30
2012,10,26,20,21,6.30
2012,10,26,20,22,6.30
2012,10,26,20,23,6.30
2012,10,26,20,24,6.30
2012,10,26,20,25,6.30
2012,10,26,20,26,6.30
2012,10,26,20,27,6.30
2012,10,26,20,28,6.30
2012,10,26,20,29,6.30
2012,10,26,20,30,6.30
2012,10,26,20,31,6.30
2012,10,26,20,32,6.30
2012,10,26,20,33,6.30
2012,10,26,20,34,6.30
2012,10,26,20,35,6.30
2012,10,26,20,36,6.30
2012,10,26,20,37,6.30
2012,10,26,20,38,6.30
2012,10,26,20,39,6.30
2012,10,26,20,40,6.30
2012,10,26,20,41,6.30
2012,10,26,20,42,6.30
2012,10,26,20,43,6.30
2012,10,26,20,44,6.30
2012,10,26,20,45,6.30
2012,10,26,20,46,6.30
2012,10,26,20,47,6.40
2012,10,26,20,48,6.40
2012,10,26,20,49,6.40
2012,10,26,20,50,6.40
2012,10,26,20,51,6.40
2012,10,26,20,52,6.40
2012,10,26,20,53,6.40
2012,10,26,20,54,6.40
2012,10,26,20,55,6.40
2012,10,26,20,56,6.40
2012,10,26,20,57,6.40
2012,10,26,20,58,6.40
2012,10,26,20,59,6.40
2012,10,26,21,00,6.40
2012,10,26,21,01,6.40
2012,10,26,21,02,6.40
2012,10,26,21,03,6.40
2012,10,26,21,04,6.40
2012,10,26,21,05,6.40
2012,10,26,21,06,6.40
2012,10,26,21,07,6.40
2012,10,26,21,08,6.40
2012,10,26,21,09,6.40
2012,10,26,21,10,6.40
2012,10,26,21,11,6.40
2012,10,26,21,12,6.40
2012,10,26,21,13,6.40
2012,10,26,21,14,6.40
2012,10,26,21,15,6.40
2012,10,26,21,16,6.40
2012,10,26,21,17,6.40
2012,10,26,21,18,6.40
2012,10,26,21,19,6.40
2012,10,26,21,20,6.40
2012,10,26,21,21,6.40
2012,10,26,21,22,6.40
2012,10,26,21,23,6.40
2012,10,26,21,24,6.40
2012,10,26,21,25,6.40
2012,10,26,21,26,6.50
2012,10,26,21,27,6.50
2012,10,26,21,28,6.50
2012,10,26,21,29,6.50
2012,10,26,21,30,6.50
2012,10,26,21,31,6.40
2012,10,26,21,32,6.40
2012,10,26,21,33,6.40
2012,10,26,21,34,6.40
2012,10,26,21,35,6.40
2012,10,26,21,36,6.40
2012,10,26,21,37,6.40
2012,10,26,21,38,6.40
2012,10,26,21,39,6.40
2012,10,26,21,40,6.40
2012,10,26,21,41,6.40
2012,10,26,21,42,6.40
2012,10,26,21,43,6.40
2012,10,26,21,44,6.40
2012,10,26,21,45,6.40
2012,10,26,21,46,6.40
2012,10,26,21,47,6.40
2012,10,26,21,48,6.40
2012,10,26,21,49,6.40
2012,10,26,21,50,6.40
2012,10,26,21,51,6.40
2012,10,26,21,52,6.40
2012,10,26,21,53,6.40
2012,10,26,21,54,6.40
2012,10,26,21,55,6.40
2012,10,26,21,56,6.40
2012,10,26,21,57,6.40
2012,10,26,21,58,6.40
2012,10,26,21,59,6.40
2012,10,26,22,00,6.40
2012,10,26,22,01,6.40
2012,10,26,22,02,6.40
2012,10,26,22,03,6.40
2012,10,26,22,04,6.40
2012,10,26,22,05,6.40
2012,10,26,22,06,6.40
2012,10,26,22,07,6.40
2012,10,26,22,08,6.40
2012,10,26,22,09,6.40
2012,10,26,22,10,6.40
2012,10,26,22,11,6.40
2012,10,26,22,12,6.40
2012,10,26,22,13,6.40
2012,10,26,22,14,6.40
2012,10,26,22,15,6.40
2012,10,26,22,16,6.40
2012,10,26,22,17,6.40
2012,10,26,22,18,6.40
2012,10,26,22,19,6.40
2012,10,26,22,20,6.40
2012,10,26,22,21,6.40
2012,10,26,22,22,6.40
2012,10,26,22,23,6.40
2012,10,26,22,24,6.40
2012,10,26,22,25,6.40
2012,10,26,22,26,6.40
2012,10,26,22,27,6.40
2012,10,26,22,28,6.40
2012,10,26,22,29,6.40
2012,10,26,22,30,6.40
2012,10,26,22,31,6.40
2012,10,26,22,32,6.40
2012,10,26,22,33,6.40
2012,10,26,22,34,6.40
2012,10,26,22,35,6.40
2012,10,26,22,36,6.40
2012,10,26,22,37,6.40
2012,10,26,22,38,6.40
2012,10,26,22,39,6.40
2012,10,26,22,40,6.40
2012,10,26,22,41,6.40
2012,10,26,22,42,6.40
2012,10,26,22,43,6.40
2012,10,26,22,44,6.40
2012,10,26,22,45,6.40
2012,10,26,22,46,6.40
2012,10,26,22,47,6.40
2012,10,26,22,48,6.40
2012,10,26,22,49,6.30
2012,10,26,22,50,6.30
2012,10,26,22,51,6.30
2012,10,26,22,52,6.30
2012,10,26,22,53,6.30
2012,10,26,22,54,6.30
2012,10,26,22,55,6.30
2012,10,26,22,56,6.30
2012,10,26,22,57,6.30
2012,10,26,22,58,6.40
2012,10,26,22,59,6.30
2012,10,26,23,00,6.30
2012,10,26,23,01,6.40
2012,10,26,23,02,6.30
2012,10,26,23,03,6.30
2012,10,26,23,04,6.30
2012,10,26,23,05,6.30
2012,10,26,23,06,6.40
2012,10,26,23,07,6.40
2012,10,26,23,08,6.40
2012,10,26,23,09,6.40
2012,10,26,23,10,6.40
2012,10,26,23,11,6.40
2012,10,26,23,12,6.40
2012,10,26,23,13,6.40
2012,10,26,23,14,6.40
2012,10,26,23,15,6.40
2012,10,26,23,16,6.40
2012,10,26,23,17,6.40
2012,10,26,23,18,6.40
2012,10,26,23,19,6.40
2012,10,26,23,20,6.40
2012,10,26,23,21,6.40
2012,10,26,23,22,6.40
2012,10,26,23,23,6.40
2012,10,26,23,24,6.40
2012,10,26,23,25,6.40
2012,10,26,23,26,6.40
2012,10,26,23,27,6.40
2012,10,26,23,28,6.40
2012,10,26,23,29,6.40
2012,10,26,23,30,6.40
2012,10,26,23,31,6.40
2012,10,26,23,32,6.40
2012,10,26,23,33,6.40
2012,10,26,23,34,6.40
2012,10,26,23,35,6.40
2012,10,26,23,36,6.40
2012,10,26,23,37,6.40
2012,10,26,23,38,6.40
2012,10,26,23,39,6.40
2012,10,26,23,40,6.40
2012,10,26,23,41,6.40
2012,10,26,23,42,6.40
2012,10,26,23,43,6.40
2012,10,26,23,44,6.40
2012,10,26,23,45,6.40
2012,10,26,23,46,6.40
2012,10,26,23,47,6.40
2012,10,26,23,48,6.40
2012,10,26,23,49,6.40
2012,10,26,23,50,6.40
2012,10,26,23,51,6.40
2012,10,26,23,52,6.40
2012,10,26,23,53,6.40
2012,10,26,23,54,6.40
2012,10,26,23,55,6.40
2012,10,26,23,56,6.40
2012,10,26,23,57,6.40
2012,10,26,23,58,6.40
2012,10,26,23,59,6.40
